Theta_e
346 346 346 343 325 322 315 312 317 322 322 327 329 327 325 329 321 315 342 347 351 353 356 358 364 364 363 364 364 364 364 363 365 363 364 365 363 362 362 364 362 363 364 362 362 362 360 358 358
339 339 343 336 319 312 312 318 317 326 328 328 327 326 325 324 335 336 338 348 351 352 354 358 363 364 363 363 364 365 362 363 363 363 364 365 363 365 363 362 362 364 364 362 362 361 358 358 359
340 341 334 324 318 312 312 319 320 330 330 326 325 329 329 327 336 337 344 348 350 351 355 357 366 366 363 363 363 366 365 363 363 364 365 363 364 363 362 362 363 362 364 362 362 361 360 359 360
335 342 337 319 316 322 322 320 327 324 326 328 327 324 333 339 338 342 347 350 350 352 357 362 364 364 364 363 364 363 365 363 364 365 365 364 363 361 361 361 362 362 362 360 361 358 357 357 359
339 337 321 318 315 321 328 327 330 327 326 325 327 323 329 339 344 348 347 346 345 347 352 355 363 362 362 363 363 364 364 364 363 364 364 365 363 361 362 363 363 362 361 359 359 358 357 356 356
330 333 317 313 315 322 327 332 331 329 327 327 325 326 330 342 343 344 345 343 345 350 351 353 362 363 361 362 363 363 362 363 364 366 364 364 364 363 366 363 361 361 360 359 357 356 356 354 352
331 324 318 318 316 319 330 334 329 325 324 325 329 321 329 337 342 344 344 344 349 353 353 353 354 359 360 363 363 362 362 363 364 364 365 363 363 363 364 365 362 361 361 359 357 356 354 353 350
335 329 320 320 315 319 333 333 334 327 325 332 331 321 326 338 343 346 344 340 346 350 351 351 352 353 353 356 363 363 362 363 364 364 364 364 363 363 363 365 365 361 360 360 358 355 354 354 356
342 321 318 319 320 322 334 330 337 338 329 330 331 329 336 341 344 343 341 341 343 345 349 350 351 350 352 353 357 361 362 363 365 363 365 364 353 353 357 360 364 361 360 359 360 358 357 356 356
330 320 323 329 330 328 333 334 334 330 330 327 327 335 339 340 341 339 338 337 341 343 345 348 350 349 350 353 353 352 356 354 353 354 356 354 352 351 355 358 360 358 361 360 360 360 358 358 352
331 324 330 332 332 334 332 332 336 330 325 327 325 329 337 335 335 338 339 338 338 343 345 345 346 347 347 349 352 350 352 352 353 354 353 350 351 351 351 352 351 351 357 353 359 359 358 355 355
325 330 333 333 333 331 330 333 331 333 330 331 330 331 335 334 331 334 337 338 341 341 345 347 347 346 348 350 351 349 349 349 351 352 351 351 349 347 347 348 347 348 351 350 350 352 353 351 350
327 332 333 333 330 331 332 331 330 331 334 334 333 333 333 334 334 337 339 338 336 340 344 347 348 349 349 350 350 348 345 348 349 350 349 349 352 350 342 346 342 346 350 347 344 345 347 344 344
330 331 329 331 329 330 329 330 332 333 335 332 331 328 331 333 332 337 338 338 339 344 346 348 350 346 345 350 350 345 346 347 346 342 347 348 347 343 344 346 342 344 348 348 345 343 343 343 344
330 324 326 328 329 328 329 324 324 333 333 330 329 328 328 328 335 336 339 339 341 343 346 345 349 351 348 344 343 343 349 350 346 340 347 351 346 350 343 340 345 344 346 347 344 343 345 342 345
325 324 315 324 327 327 326 316 326 333 330 326 327 328 328 330 334 336 340 340 341 344 343 346 350 350 348 347 345 345 347 346 349 348 355 353 353 349 347 344 345 351 353 356 350 344 343 340 340
321 310 315 317 327 324 324 317 327 333 329 325 324 325 327 330 333 336 340 340 341 344 343 345 350 347 348 350 350 346 346 348 348 348 351 353 347 349 346 348 349 350 350 347 347 348 345 340 340
311 313 317 316 321 323 320 320 325 328 328 324 323 325 325 329 330 336 340 342 341 345 345 349 349 348 349 349 351 348 349 346 348 349 350 352 351 349 346 347 339 340 345 349 351 350 346 337 340
316 316 316 320 324 320 318 319 321 325 327 322 322 324 324 326 330 336 340 342 343 345 347 346 345 348 350 346 341 343 343 350 349 350 352 354 348 339 345 346 331 336 339 344 350 351 350 341 335
317 316 315 320 323 320 318 317 323 325 324 326 322 323 324 327 329 333 339 342 342 342 346 347 348 348 347 346 345 346 349 348 352 350 353 352 351 352 354 350 340 339 348 347 348 350 351 344 344
316 315 314 314 319 319 316 313 317 322 324 326 325 328 325 327 327 333 338 340 341 341 344 348 346 346 346 344 348 346 348 344 345 348 346 351 352 350 353 354 351 346 344 345 351 353 350 348 348
309 321 319 317 312 305 316 303 313 318 319 321 322 328 328 327 329 333 337 340 342 341 343 348 348 348 345 342 343 341 340 338 345 346 348 348 351 352 354 350 351 344 336 335 349 356 354 351 347
315 317 320 317 312 310 310 307 312 318 315 319 321 327 328 329 332 332 334 342 345 344 346 350 348 348 349 346 345 342 342 343 346 348 352 352 350 349 352 349 352 349 341 347 350 353 353 355 349
322 318 317 315 310 301 308 308 309 311 316 320 320 324 329 330 331 334 334 339 345 348 350 351 349 348 350 348 347 345 344 345 343 346 349 348 349 349 353 353 350 352 352 348 351 353 350 354 352
319 309 298 296 299 297 308 305 309 318 321 322 319 322 329 331 330 332 333 334 338 345 350 352 351 349 351 348 348 347 346 344 344 345 344 346 347 347 348 353 351 350 350 352 352 351 350 353 351
305 309 300 293 296 302 310 305 309 323 328 327 323 324 329 330 330 332 335 335 339 340 350 351 349 350 350 351 350 350 348 345 346 346 348 349 348 347 352 353 354 354 355 352 352 352 352 350 351
302 302 310 302 307 301 306 312 322 326 326 326 325 325 328 330 330 332 335 335 339 341 345 349 349 347 349 352 350 349 350 348 348 349 349 351 351 353 354 354 354 354 353 354 353 350 350 349 352
303 307 298 297 297 296 304 307 309 318 319 321 321 323 327 329 329 333 333 334 339 344 345 350 350 349 350 350 350 350 350 349 350 351 350 348 351 351 354 353 353 352 353 354 352 350 351 350 350
301 298 299 298 299 296 296 303 320 319 323 320 323 325 325 328 331 332 334 339 338 342 347 350 349 349 349 350 350 349 351 350 351 351 350 351 352 354 353 353 351 352 353 353 351 348 350 348 348
303 300 299 294 293 298 301 302 324 323 318 324 324 326 328 332 332 336 336 337 338 338 348 349 349 349 349 350 350 349 350 352 349 350 350 352 351 353 354 352 352 352 353 351 351 351 350 349 346
Wind_Speed
2 4 2 2 5 2 5 12 12 18 21 17 18 13 12 4 7 10 17 19 17 14 10 12 14 15 15 14 14 14 15 16 15 15 15 16 18 18 17 17 18 17 18 18 17 16 15 14 15
3 7 2 2 2 2 2 12 16 21 17 20 25 25 24 22 22 23 16 22 18 14 11 10 14 15 15 15 14 13 15 16 16 16 14 17 17 15 17 18 17 16 16 17 15 15 14 13 13
3 3 4 0 3 3 3 17 15 20 18 21 14 15 9 20 21 11 23 22 18 15 11 11 14 15 16 15 14 13 14 16 16 15 15 16 16 17 15 15 15 15 15 15 15 13 13 12 13
3 3 2 1 5 4 4 11 22 22 20 25 21 17 19 20 21 21 24 23 19 14 10 13 15 16 16 15 14 14 14 15 15 15 15 16 15 15 14 14 13 13 15 15 13 12 10 9 11
3 2 3 2 4 10 8 18 4 19 17 19 23 22 16 20 27 24 21 21 18 13 10 10 14 14 15 15 14 14 14 15 16 15 15 14 14 14 15 15 15 15 14 14 12 11 9 7 7
4 1 2 7 6 10 6 15 16 20 22 18 23 22 10 22 22 19 21 20 18 16 12 10 14 15 14 15 15 14 14 16 16 15 15 14 13 13 13 14 14 14 14 12 10 10 8 5 2
2 1 4 6 8 8 10 16 1 22 20 19 17 21 13 19 16 18 17 17 17 17 13 9 7 14 16 14 15 14 14 15 16 16 15 13 14 14 13 12 12 12 11 11 8 8 7 5 2
2 2 4 8 11 2 6 5 5 15 19 23 22 12 12 19 18 16 15 12 15 14 14 11 7 7 6 7 14 15 14 14 15 16 15 14 13 13 12 8 10 11 11 9 6 4 4 3 4
4 2 2 5 12 6 9 7 5 7 22 16 11 15 20 22 18 15 12 9 5 6 12 10 10 7 8 6 9 12 14 12 12 12 14 11 4 5 6 6 8 8 8 8 8 6 4 5 6
4 2 2 15 11 7 5 6 6 14 6 19 21 24 22 24 21 18 14 11 3 3 7 8 9 9 10 8 6 5 6 4 4 5 5 2 4 5 6 4 3 2 6 5 6 5 3 5 5
5 2 4 5 4 11 8 5 3 14 10 17 23 23 24 20 17 19 17 15 10 6 7 7 6 7 8 6 3 3 3 3 4 7 6 5 4 3 3 1 1 3 4 2 5 5 4 7 5
5 4 5 2 5 4 3 3 5 5 11 20 20 18 20 18 13 15 19 16 17 7 7 9 6 7 6 5 4 4 2 4 3 3 6 4 2 2 5 2 6 1 4 4 5 3 7 4 5
10 5 9 8 9 5 1 4 8 11 15 16 16 14 22 18 16 19 20 15 12 11 5 7 6 6 6 9 5 4 4 4 4 2 3 3 5 5 4 5 3 1 3 1 4 1 4 4 5
13 13 6 7 7 2 8 9 5 4 11 18 13 10 7 21 14 20 17 15 11 14 9 7 6 6 6 4 7 5 4 5 1 3 1 5 4 4 5 4 3 3 3 4 1 1 2 3 4
23 19 10 5 3 4 9 4 3 11 17 16 13 8 8 9 21 20 20 17 17 13 11 9 7 5 3 4 6 7 8 5 0 1 1 6 4 12 6 2 3 3 5 5 2 2 2 2 1
10 7 7 2 4 5 4 3 5 3 18 16 14 11 12 9 17 18 18 16 15 13 12 10 8 7 3 1 3 3 9 10 5 6 4 6 4 9 4 5 4 3 3 1 3 2 2 3 4
4 5 10 2 1 2 2 2 6 5 11 15 13 10 12 12 16 14 19 16 13 12 9 7 7 7 5 1 4 5 9 9 5 5 5 5 6 4 6 1 3 3 4 2 2 4 3 2 2
9 7 6 10 6 1 2 2 7 5 9 13 11 10 10 13 11 17 17 16 11 12 11 11 5 8 5 2 2 4 4 2 4 5 5 6 5 6 4 2 4 5 4 4 4 4 4 1 1
7 7 14 9 8 5 2 2 11 7 9 13 10 12 12 13 12 18 17 16 11 9 13 13 8 6 4 2 2 3 3 3 3 4 7 7 6 6 7 5 3 3 4 5 2 3 2 1 2
14 11 11 8 16 3 5 6 11 11 6 8 6 13 14 11 13 16 17 15 13 9 12 9 7 7 4 3 1 2 2 3 2 3 4 6 7 5 5 4 1 5 5 6 5 5 4 2 1
15 17 11 11 11 7 10 4 8 11 8 10 7 5 10 19 16 16 18 18 13 12 11 10 8 8 4 2 3 3 4 3 3 1 1 3 5 4 4 5 6 3 2 3 4 3 5 3 4
4 13 14 21 9 5 9 2 6 10 16 8 9 6 4 17 15 17 18 18 15 13 11 11 9 8 6 6 1 4 3 4 3 3 2 3 3 3 4 6 5 2 2 2 3 4 3 4 5
10 26 17 20 6 9 5 2 4 11 18 20 13 6 6 15 17 15 20 20 17 15 14 13 10 8 11 8 7 5 3 2 3 2 4 3 2 3 4 5 6 4 1 2 3 3 6 4 2
19 18 9 4 4 3 11 4 8 13 28 21 14 10 8 8 13 16 12 20 18 15 14 13 14 9 10 11 12 9 7 5 3 3 4 4 3 4 2 5 5 4 2 2 3 2 6 4 4
19 12 2 1 3 5 4 9 17 13 18 24 22 14 12 13 10 13 14 15 15 20 17 13 13 12 9 8 8 8 7 4 7 7 4 3 3 3 5 5 4 3 3 2 2 3 2 3 2
12 10 6 5 2 5 6 7 8 16 15 20 21 15 14 15 11 14 15 11 16 15 19 17 13 12 12 8 8 7 8 5 4 6 4 5 5 4 4 6 5 5 4 3 1 1 3 3 1
10 6 15 10 5 4 7 5 16 9 12 17 19 17 18 14 15 14 14 13 9 15 18 18 15 11 11 8 7 6 6 6 5 6 4 4 5 6 6 6 6 4 4 4 3 1 2 3 3
7 6 2 3 8 5 8 7 3 10 5 4 14 18 16 10 13 15 17 12 9 19 17 17 16 16 14 11 7 6 6 5 4 4 4 2 2 3 6 6 6 6 4 5 5 2 1 2 2
5 5 3 1 3 4 4 4 7 17 5 3 8 9 13 13 14 15 17 14 10 11 16 15 14 12 9 9 8 7 6 7 5 4 4 1 2 5 6 6 6 5 4 4 3 2 1 2 0
8 8 7 6 9 2 6 5 8 16 11 9 14 15 12 16 11 15 17 16 9 7 14 15 12 13 9 8 8 7 7 6 6 5 6 4 3 3 6 4 4 4 3 4 4 4 1 3 3
Wind_Direction
213 230 250 32 4 319 274 95 85 81 61 75 68 87 91 107 114 124 125 122 120 116 121 114 112 109 105 102 99 98 97 100 98 99 101 102 97 99 102 99 96 98 102 97 95 96 92 94 91
238 253 151 90 280 276 293 84 79 94 99 83 80 80 78 75 102 117 121 124 125 127 118 117 114 108 106 103 102 100 106 107 103 106 104 101 100 97 95 96 93 91 90 93 98 97 95 92 89
232 236 63 8 238 291 36 94 80 81 83 92 82 85 74 109 123 109 128 129 124 110 114 120 116 113 107 99 98 95 105 108 107 109 107 109 109 102 97 96 100 99 99 98 100 96 97 97 83
227 74 103 22 307 273 321 112 102 99 95 99 106 85 113 113 109 117 111 108 108 112 114 114 118 110 108 107 104 100 106 113 114 113 107 107 104 107 107 110 109 107 105 100 102 103 101 94 84
249 119 111 67 343 289 316 104 88 95 109 91 103 107 97 106 114 118 113 114 115 116 118 115 119 117 115 112 109 106 106 117 116 118 112 112 109 112 112 106 112 104 104 108 110 109 100 83 94
14 142 86 111 218 274 302 65 91 100 104 105 104 110 114 122 121 125 122 125 127 123 124 124 130 125 122 115 115 111 110 116 124 122 118 112 111 114 115 110 108 109 111 115 115 115 111 122 106
156 74 77 119 177 302 28 83 136 114 123 114 118 117 128 124 123 108 113 124 126 129 131 129 124 126 127 126 124 122 120 122 124 125 124 122 120 118 120 120 121 121 116 118 133 131 140 144 163
159 102 95 107 180 240 4 91 51 130 123 123 127 149 131 128 119 107 112 112 126 138 135 132 134 131 124 122 130 128 129 129 133 135 134 134 127 130 124 126 131 127 130 128 140 151 173 204 236
210 46 117 168 169 210 279 120 196 84 127 141 137 129 138 128 121 114 110 91 67 133 132 145 148 149 127 130 135 135 139 140 137 140 146 139 134 132 127 158 138 135 138 150 162 180 227 252 265
196 71 99 207 174 161 197 113 144 111 189 116 135 121 143 140 144 132 126 108 144 125 121 145 157 148 146 138 137 146 151 139 149 145 148 174 170 149 154 156 147 134 160 183 206 202 241 302 304
164 115 14 102 145 164 162 146 200 131 137 154 138 141 148 145 150 143 141 146 163 163 122 144 147 161 129 135 157 167 163 171 171 173 178 162 133 160 126 56 62 323 261 211 227 203 240 239 239
99 345 87 104 54 55 35 72 44 71 186 137 142 153 154 147 151 136 130 127 115 100 133 139 140 127 115 135 183 192 159 155 155 181 156 138 121 17 112 340 50 266 292 288 249 198 236 249 284
66 73 100 116 75 83 225 108 125 260 130 134 147 159 156 148 159 122 137 146 142 129 177 134 148 125 147 152 196 184 193 155 108 77 10 158 120 232 60 103 291 64 202 303 217 172 167 187 52
114 95 113 119 40 45 111 136 104 242 136 142 150 144 151 149 136 129 129 128 141 138 147 146 127 138 149 174 164 180 98 72 87 138 125 301 127 169 82 47 302 225 219 277 205 89 131 108 102
141 128 120 47 4 39 338 150 143 154 155 142 140 166 134 146 129 132 143 146 141 149 147 141 126 112 84 99 132 125 113 60 266 242 274 111 111 97 102 216 217 288 309 247 293 311 74 108 55
135 138 153 269 359 322 26 160 189 323 148 144 155 179 155 143 133 131 133 137 140 143 144 141 145 153 170 47 71 135 142 170 203 206 97 118 80 73 78 336 315 235 290 279 289 292 321 200 166
15 223 116 120 321 341 72 215 295 352 169 150 169 182 155 135 128 126 133 141 138 150 137 139 145 158 151 90 270 171 146 162 172 111 111 109 84 88 35 147 323 334 15 3 2 49 114 75 340
184 211 168 127 187 170 12 30 306 319 164 159 177 168 144 140 140 130 135 137 142 128 126 137 162 148 146 191 21 82 115 118 140 136 146 134 133 137 144 284 248 48 16 317 23 59 42 232 174
102 93 101 122 120 100 63 295 275 331 345 162 192 160 155 152 150 135 141 139 133 111 127 142 167 136 141 105 63 53 87 107 115 141 151 147 164 161 133 191 94 94 13 307 9 1 9 285 227
77 110 115 127 152 106 133 274 314 310 299 303 199 174 167 152 147 144 145 141 142 132 129 142 145 143 137 114 115 91 85 54 134 152 157 169 154 189 136 136 155 28 357 353 19 19 346 354 301
134 165 204 147 137 93 130 300 267 295 274 275 294 257 177 158 159 141 150 150 157 143 148 139 150 158 129 85 7 57 77 36 54 109 192 203 154 165 143 117 108 129 166 8 342 346 46 8 349
121 10 180 145 137 148 238 157 208 247 260 249 256 229 233 162 159 152 155 155 161 166 161 147 152 151 115 124 349 298 167 142 187 175 204 210 185 193 137 120 129 107 103 79 333 347 38 54 32
134 107 219 162 120 110 237 112 232 219 248 234 223 177 210 167 153 159 157 163 170 165 168 160 159 160 138 165 197 235 246 195 177 170 177 185 206 206 155 154 145 138 325 333 320 353 31 49 73
143 131 115 62 87 132 177 181 236 205 221 222 216 177 215 185 162 170 156 150 169 165 167 164 159 168 154 164 186 189 209 202 169 187 178 177 190 221 240 183 153 144 134 18 328 50 41 20 38
120 136 115 34 54 247 183 160 241 231 215 211 210 182 201 192 186 172 163 168 162 166 167 161 162 160 158 168 177 173 179 194 152 164 183 185 204 222 204 165 169 160 182 211 291 61 45 1 77
175 167 220 131 89 327 143 211 263 296 209 199 203 185 204 194 191 175 181 154 169 168 165 161 164 158 160 173 186 177 167 176 191 203 171 208 213 212 182 174 176 177 172 210 316 38 356 355 293
264 187 228 101 47 67 298 320 311 4 146 176 187 186 201 200 193 190 187 181 161 170 163 159 160 162 166 170 167 177 183 169 209 223 195 193 205 187 184 170 181 209 191 206 190 143 295 327 319
192 252 239 291 150 172 196 181 223 18 14 127 184 187 204 207 194 191 189 191 162 162 163 161 161 168 170 158 165 176 179 172 185 172 187 192 101 169 172 183 188 192 216 207 166 180 31 328 268
290 297 311 179 207 190 118 272 184 143 160 5 307 282 228 219 214 189 184 182 174 154 153 160 163 157 162 147 154 166 181 174 194 195 211 250 150 144 170 177 188 205 201 175 162 179 272 338 195
205 227 220 134 284 233 164 222 161 152 156 161 211 251 261 241 210 165 161 165 171 142 156 161 161 162 159 144 159 172 171 178 186 208 200 197 195 175 176 198 207 210 215 211 202 202 224 218 258